This demonstration page uses our WeatherBlox Daily Observations layout. Learn more.

Left ArrowRight Arrow

Hourly Observations for November 15, 2019

Temp ( °F °C ) Dew Point ( °F °C ) Humidity (%) Winds ( mph kmh ) Pressure ( in mb ) Visibility ( mi km ) Precip ( " mm )
12:56 am 00:56 Clear 35 1.7 28 -2.2 76 76 SSW 9 15 30.31 1026 10 16 0.00 0.00
1:56 am 01:56 Clear 37 2.8 29 -1.7 73 73 SW 13 20 30.29 1026 10 16 0.00 0.00
2:56 am 02:56 Clear 35 1.7 28 -2.2 76 76 SW 12 19 30.29 1026 10 16 0.00 0.00
3:56 am 03:56 Clear 32 0 27 -2.8 82 82 SW 8 13 30.28 1025 10 16 0.00 0.00
4:56 am 04:56 Clear 34 1.1 28 -2.2 79 79 SSW 10 17 30.27 1025 10 16 0.00 0.00
5:56 am 05:56 Clear 33 0.6 27 -2.8 78 78 SSW 12 19 30.27 1025 10 16 0.00 0.00
6:56 am 06:56 Clear 27 -2.8 24 -4.4 89 89 SSW 7 11 30.27 1025 10 16 0.00 0.00
7:56 am 07:56 Sunny 27 -2.8 25 -3.9 92 92 S 7 11 30.26 1025 10 16 0.00 0.00
8:56 am 08:56 Sunny 37 2.8 29 -1.7 73 73 S 7 11 30.25 1025 10 16 0.00 0.00
9:56 am 09:56 Sunny 45 7.2 31 -0.6 58 58 SSW 16 26 30.24 1024 10 16 0.00 0.00
10:56 am 10:56 Sunny 50 10 33 0.6 52 52 S 15 24 30.22 1023 10 16 0.00 0.00
11:56 am 11:56 Sunny 56 13.3 34 1.1 44 44 S 18 30 30.17 1022 10 16 0.00 0.00
12:56 pm 12:56 Sunny 60 15.6 34 1.1 38 38 S 23 37 30.12 1020 10 16 0.00 0.00
1:56 pm 13:56 Sunny 62 16.7 34 1.1 35 35 S 23 37 30.09 1019 10 16 0.00 0.00
2:56 pm 14:56 Sunny 62 16.7 34 1.1 35 35 S 24 39 30.09 1019 10 16 0.00 0.00
3:56 pm 15:56 Sunny 59 15 33 0.6 38 38 S 15 24 30.10 1019 10 16 0.00 0.00
4:56 pm 16:56 Sunny 56 13.3 33 0.6 42 42 S 12 19 30.09 1019 10 16 0.00 0.00
5:56 pm 17:56 Clear 49 9.4 31 -0.6 50 50 SSE 9 15 30.10 1019 10 16 0.00 0.00
6:56 pm 18:56 Clear 47 8.3 31 -0.6 54 54 SSE 10 17 30.12 1020 10 16 0.00 0.00
7:56 pm 19:56 Clear 46 7.8 30 -1.1 54 54 SSE 14 22 30.12 1020 10 16 0.00 0.00
8:56 pm 20:56 Clear 47 8.3 30 -1.1 52 52 S 15 24 30.10 1019 10 16 0.00 0.00
9:56 pm 21:56 Clear 44 6.7 30 -1.1 58 58 S 13 20 30.10 1019 10 16 0.00 0.00
10:56 pm 22:56 Clear 44 6.7 31 -0.6 60 60 S 17 28 30.08 1019 10 16 0.00 0.00
11:56 pm 23:56 Clear 43 6.1 31 -0.6 63 63 S 15 24 30.06 1018 10 16 0.00 0.00

Powered by AerisWeather